Year,Month,Day,Hour,Minute,Value (Times are PST for temperature in C)
2018,10,22,00,00,5.50
2018,10,22,00,01,5.50
2018,10,22,00,02,5.50
2018,10,22,00,03,5.50
2018,10,22,00,04,5.40
2018,10,22,00,05,5.50
2018,10,22,00,06,5.50
2018,10,22,00,07,5.50
2018,10,22,00,08,5.50
2018,10,22,00,09,5.40
2018,10,22,00,10,5.40
2018,10,22,00,11,5.30
2018,10,22,00,12,5.30
2018,10,22,00,13,5.30
2018,10,22,00,14,5.30
2018,10,22,00,15,5.30
2018,10,22,00,16,5.30
2018,10,22,00,17,5.30
2018,10,22,00,18,5.30
2018,10,22,00,19,5.30
2018,10,22,00,20,5.30
2018,10,22,00,21,5.30
2018,10,22,00,22,5.30
2018,10,22,00,23,5.30
2018,10,22,00,24,5.30
2018,10,22,00,25,5.40
2018,10,22,00,26,5.40
2018,10,22,00,27,5.30
2018,10,22,00,28,5.30
2018,10,22,00,29,5.30
2018,10,22,00,30,5.30
2018,10,22,00,31,5.30
2018,10,22,00,32,5.20
2018,10,22,00,33,5.20
2018,10,22,00,34,5.20
2018,10,22,00,35,5.20
2018,10,22,00,36,5.30
2018,10,22,00,37,5.30
2018,10,22,00,38,5.30
2018,10,22,00,39,5.20
2018,10,22,00,40,5.20
2018,10,22,00,41,5.10
2018,10,22,00,42,5.10
2018,10,22,00,43,5.10
2018,10,22,00,44,5.10
2018,10,22,00,45,5.10
2018,10,22,00,46,5.10
2018,10,22,00,47,5.10
2018,10,22,00,48,5.10
2018,10,22,00,49,5.20
2018,10,22,00,50,5.20
2018,10,22,00,51,5.20
2018,10,22,00,52,5.20
2018,10,22,00,53,5.10
2018,10,22,00,54,5.10
2018,10,22,00,55,5.10
2018,10,22,00,56,5.20
2018,10,22,00,57,5.20
2018,10,22,00,58,5.20
2018,10,22,00,59,5.10
2018,10,22,01,00,5.20
2018,10,22,01,01,5.20
2018,10,22,01,02,5.20
2018,10,22,01,03,5.20
2018,10,22,01,04,5.30
2018,10,22,01,05,5.30
2018,10,22,01,06,5.30
2018,10,22,01,07,5.40
2018,10,22,01,08,5.40
2018,10,22,01,09,5.40
2018,10,22,01,10,5.40
2018,10,22,01,11,5.40
2018,10,22,01,12,5.50
2018,10,22,01,13,5.50
2018,10,22,01,14,5.60
2018,10,22,01,15,5.60
2018,10,22,01,16,5.60
2018,10,22,01,17,5.60
2018,10,22,01,18,5.60
2018,10,22,01,19,5.50
2018,10,22,01,20,5.50
2018,10,22,01,21,5.40
2018,10,22,01,22,5.30
2018,10,22,01,23,5.30
2018,10,22,01,24,5.30
2018,10,22,01,25,5.20
2018,10,22,01,26,5.20
2018,10,22,01,27,5.20
2018,10,22,01,28,5.20
2018,10,22,01,29,5.20
2018,10,22,01,30,5.20
2018,10,22,01,31,5.20
2018,10,22,01,32,5.20
2018,10,22,01,33,5.10
2018,10,22,01,34,5.10
2018,10,22,01,35,5.10
2018,10,22,01,36,5.00
2018,10,22,01,37,5.00
2018,10,22,01,38,4.90
2018,10,22,01,39,4.90
2018,10,22,01,40,4.90
2018,10,22,01,41,4.90
2018,10,22,01,42,4.90
2018,10,22,01,43,4.90
2018,10,22,01,44,4.90
2018,10,22,01,45,4.90
2018,10,22,01,46,4.90
2018,10,22,01,47,4.90
2018,10,22,01,48,4.90
2018,10,22,01,49,4.80
2018,10,22,01,50,4.80
2018,10,22,01,51,4.90
2018,10,22,01,52,4.90
2018,10,22,01,53,4.90
2018,10,22,01,54,4.90
2018,10,22,01,55,4.80
2018,10,22,01,56,4.80
2018,10,22,01,57,4.80
2018,10,22,01,58,4.80
2018,10,22,01,59,4.80
2018,10,22,02,00,4.90
2018,10,22,02,01,5.00
2018,10,22,02,02,5.10
2018,10,22,02,03,5.10
2018,10,22,02,04,5.20
2018,10,22,02,05,5.20
2018,10,22,02,06,5.20
2018,10,22,02,07,5.10
2018,10,22,02,08,5.10
2018,10,22,02,09,5.10
2018,10,22,02,10,5.10
2018,10,22,02,11,5.10
2018,10,22,02,12,5.10
2018,10,22,02,13,5.10
2018,10,22,02,14,5.10
2018,10,22,02,15,5.10
2018,10,22,02,16,5.10
2018,10,22,02,17,5.10
2018,10,22,02,18,5.10
2018,10,22,02,19,5.10
2018,10,22,02,20,5.10
2018,10,22,02,21,5.10
2018,10,22,02,22,5.10
2018,10,22,02,23,5.10
2018,10,22,02,24,5.10
2018,10,22,02,25,5.10
2018,10,22,02,26,5.10
2018,10,22,02,27,5.10
2018,10,22,02,28,5.10
2018,10,22,02,29,5.10
2018,10,22,02,30,5.10
2018,10,22,02,31,5.10
2018,10,22,02,32,5.10
2018,10,22,02,33,5.00
2018,10,22,02,34,5.00
2018,10,22,02,35,5.00
2018,10,22,02,36,5.00
2018,10,22,02,37,5.00
2018,10,22,02,38,5.00
2018,10,22,02,39,5.00
2018,10,22,02,40,5.00
2018,10,22,02,41,5.00
2018,10,22,02,42,5.10
2018,10,22,02,43,5.10
2018,10,22,02,44,5.20
2018,10,22,02,45,5.20
2018,10,22,02,46,5.20
2018,10,22,02,47,5.20
2018,10,22,02,48,5.20
2018,10,22,02,49,5.10
2018,10,22,02,50,5.10
2018,10,22,02,51,5.10
2018,10,22,02,52,5.10
2018,10,22,02,53,5.10
2018,10,22,02,54,5.10
2018,10,22,02,55,5.10
2018,10,22,02,56,5.10
2018,10,22,02,57,5.10
2018,10,22,02,58,5.00
2018,10,22,02,59,5.00
2018,10,22,03,00,5.00
2018,10,22,03,01,4.90
2018,10,22,03,02,4.90
2018,10,22,03,03,4.90
2018,10,22,03,04,4.90
2018,10,22,03,05,4.80
2018,10,22,03,06,4.80
2018,10,22,03,07,4.80
2018,10,22,03,08,4.80
2018,10,22,03,09,4.80
2018,10,22,03,10,4.80
2018,10,22,03,11,4.80
2018,10,22,03,12,4.90
2018,10,22,03,13,4.90
2018,10,22,03,14,4.90
2018,10,22,03,15,4.90
2018,10,22,03,16,4.90
2018,10,22,03,17,4.90
2018,10,22,03,18,4.80
2018,10,22,03,19,4.80
2018,10,22,03,20,4.90
2018,10,22,03,21,4.90
2018,10,22,03,22,4.90
2018,10,22,03,23,4.90
2018,10,22,03,24,4.90
2018,10,22,03,25,4.90
2018,10,22,03,26,4.90
2018,10,22,03,27,5.00
2018,10,22,03,28,4.90
2018,10,22,03,29,4.90
2018,10,22,03,30,4.90
2018,10,22,03,31,4.80
2018,10,22,03,32,4.80
2018,10,22,03,33,4.80
2018,10,22,03,34,4.80
2018,10,22,03,35,4.80
2018,10,22,03,36,4.80
2018,10,22,03,37,4.80
2018,10,22,03,38,4.80
2018,10,22,03,39,4.80
2018,10,22,03,40,4.80
2018,10,22,03,41,4.80
2018,10,22,03,42,4.80
2018,10,22,03,43,4.80
2018,10,22,03,44,4.70
2018,10,22,03,45,4.70
2018,10,22,03,46,4.70
2018,10,22,03,47,4.70
2018,10,22,03,48,4.70
2018,10,22,03,49,4.70
2018,10,22,03,50,4.60
2018,10,22,03,51,4.60
2018,10,22,03,52,4.60
2018,10,22,03,53,4.60
2018,10,22,03,54,4.60
2018,10,22,03,55,4.60
2018,10,22,03,56,4.60
2018,10,22,03,57,4.60
2018,10,22,03,58,4.50
2018,10,22,03,59,4.50
2018,10,22,04,00,4.40
2018,10,22,04,01,4.40
2018,10,22,04,02,4.40
2018,10,22,04,03,4.40
2018,10,22,04,04,4.30
2018,10,22,04,05,4.30
2018,10,22,04,06,4.40
2018,10,22,04,07,4.40
2018,10,22,04,08,4.40
2018,10,22,04,09,4.40
2018,10,22,04,10,4.40
2018,10,22,04,11,4.40
2018,10,22,04,12,4.30
2018,10,22,04,13,4.20
2018,10,22,04,14,4.20
2018,10,22,04,15,4.20
2018,10,22,04,16,4.20
2018,10,22,04,17,4.20
2018,10,22,04,18,4.20
2018,10,22,04,19,4.20
2018,10,22,04,20,4.30
2018,10,22,04,21,4.40
2018,10,22,04,22,4.40
2018,10,22,04,23,4.50
2018,10,22,04,24,4.60
2018,10,22,04,25,4.70
2018,10,22,04,26,4.70
2018,10,22,04,27,4.70
2018,10,22,04,28,4.70
2018,10,22,04,29,4.70
2018,10,22,04,30,4.70
2018,10,22,04,31,4.70
2018,10,22,04,32,4.70
2018,10,22,04,33,4.70
2018,10,22,04,34,4.60
2018,10,22,04,35,4.60
2018,10,22,04,36,4.50
2018,10,22,04,37,4.40
2018,10,22,04,38,4.40
2018,10,22,04,39,4.40
2018,10,22,04,40,4.30
2018,10,22,04,41,4.30
2018,10,22,04,42,4.40
2018,10,22,04,43,4.40
2018,10,22,04,44,4.40
2018,10,22,04,45,4.40
2018,10,22,04,46,4.30
2018,10,22,04,47,4.30
2018,10,22,04,48,4.30
2018,10,22,04,49,4.30
2018,10,22,04,50,4.30
2018,10,22,04,51,4.30
2018,10,22,04,52,4.30
2018,10,22,04,53,4.20
2018,10,22,04,54,4.20
2018,10,22,04,55,4.20
2018,10,22,04,56,4.10
2018,10,22,04,57,4.10
2018,10,22,04,58,4.10
2018,10,22,04,59,4.10
2018,10,22,05,00,4.10
2018,10,22,05,01,4.10
2018,10,22,05,02,4.10
2018,10,22,05,03,4.10
2018,10,22,05,04,4.00
2018,10,22,05,05,4.00
2018,10,22,05,06,3.90
2018,10,22,05,07,3.90
2018,10,22,05,08,3.80
2018,10,22,05,09,3.80
2018,10,22,05,10,3.80
2018,10,22,05,11,3.70
2018,10,22,05,12,3.70
2018,10,22,05,13,3.80
2018,10,22,05,14,3.80
2018,10,22,05,15,3.80
2018,10,22,05,16,3.80
2018,10,22,05,17,3.80
2018,10,22,05,18,3.80
2018,10,22,05,19,3.70
2018,10,22,05,20,3.70
2018,10,22,05,21,3.70
2018,10,22,05,22,3.60
2018,10,22,05,23,3.70
2018,10,22,05,24,3.70
2018,10,22,05,25,3.70
2018,10,22,05,26,3.80
2018,10,22,05,27,3.80
2018,10,22,05,28,3.80
2018,10,22,05,29,3.80
2018,10,22,05,30,3.80
2018,10,22,05,31,3.70
2018,10,22,05,32,3.70
2018,10,22,05,33,3.60
2018,10,22,05,34,3.60
2018,10,22,05,35,3.50
2018,10,22,05,36,3.50
2018,10,22,05,37,3.50
2018,10,22,05,38,3.40
2018,10,22,05,39,3.40
2018,10,22,05,40,3.40
2018,10,22,05,41,3.30
2018,10,22,05,42,3.30
2018,10,22,05,43,3.20
2018,10,22,05,44,3.20
2018,10,22,05,45,3.20
2018,10,22,05,46,3.20
2018,10,22,05,47,3.20
2018,10,22,05,48,3.20
2018,10,22,05,49,3.20
2018,10,22,05,50,3.40
2018,10,22,05,51,3.50
2018,10,22,05,52,3.60
2018,10,22,05,53,3.70
2018,10,22,05,54,3.80
2018,10,22,05,55,3.90
2018,10,22,05,56,3.90
2018,10,22,05,57,3.80
2018,10,22,05,58,3.70
2018,10,22,05,59,3.70
2018,10,22,06,00,3.60
2018,10,22,06,01,3.60
2018,10,22,06,02,3.60
2018,10,22,06,03,3.70
2018,10,22,06,04,3.70
2018,10,22,06,05,3.80
2018,10,22,06,06,4.00
2018,10,22,06,07,4.00
2018,10,22,06,08,4.00
2018,10,22,06,09,3.90
2018,10,22,06,10,3.80
2018,10,22,06,11,3.80
2018,10,22,06,12,3.70
2018,10,22,06,13,3.70
2018,10,22,06,14,3.60
2018,10,22,06,15,3.60
2018,10,22,06,16,3.50
2018,10,22,06,17,3.50
2018,10,22,06,18,3.40
2018,10,22,06,19,3.40
2018,10,22,06,20,3.30
2018,10,22,06,21,3.30
2018,10,22,06,22,3.30
2018,10,22,06,23,3.20
2018,10,22,06,24,3.20
2018,10,22,06,25,3.20
2018,10,22,06,26,3.20
2018,10,22,06,27,3.20
2018,10,22,06,28,3.20
2018,10,22,06,29,3.20
2018,10,22,06,30,3.20
2018,10,22,06,31,3.20
2018,10,22,06,32,3.20
2018,10,22,06,33,3.30
2018,10,22,06,34,3.40
2018,10,22,06,35,3.40
2018,10,22,06,36,3.40
2018,10,22,06,37,3.40
2018,10,22,06,38,3.30
2018,10,22,06,39,3.40
2018,10,22,06,40,3.40
2018,10,22,06,41,3.40
2018,10,22,06,42,3.50
2018,10,22,06,43,3.50
2018,10,22,06,44,3.50
2018,10,22,06,45,3.50
2018,10,22,06,46,3.50
2018,10,22,06,47,3.40
2018,10,22,06,48,3.40
2018,10,22,06,49,3.40
2018,10,22,06,50,3.40
2018,10,22,06,51,3.40
2018,10,22,06,52,3.50
2018,10,22,06,53,3.50
2018,10,22,06,54,3.40
2018,10,22,06,55,3.40
2018,10,22,06,56,3.40
2018,10,22,06,57,3.30
2018,10,22,06,58,3.30
2018,10,22,06,59,3.30
2018,10,22,07,00,3.30
2018,10,22,07,01,3.30
2018,10,22,07,02,3.30
2018,10,22,07,03,3.30
2018,10,22,07,04,3.30
2018,10,22,07,05,3.30
2018,10,22,07,06,3.30
2018,10,22,07,07,3.30
2018,10,22,07,08,3.20
2018,10,22,07,09,3.20
2018,10,22,07,10,3.20
2018,10,22,07,11,3.20
2018,10,22,07,12,3.20
2018,10,22,07,13,3.10
2018,10,22,07,14,3.10
2018,10,22,07,15,3.30
2018,10,22,07,16,3.40
2018,10,22,07,17,3.50
2018,10,22,07,18,3.50
2018,10,22,07,19,3.40
2018,10,22,07,20,3.40
2018,10,22,07,21,3.40
2018,10,22,07,22,3.30
2018,10,22,07,23,3.20
2018,10,22,07,24,3.20
2018,10,22,07,25,3.30
2018,10,22,07,26,3.40
2018,10,22,07,27,3.50
2018,10,22,07,28,3.60
2018,10,22,07,29,3.70
2018,10,22,07,30,3.80
2018,10,22,07,31,3.80
2018,10,22,07,32,3.80
2018,10,22,07,33,3.70
2018,10,22,07,34,3.60
2018,10,22,07,35,3.50
2018,10,22,07,36,3.40
2018,10,22,07,37,3.30
2018,10,22,07,38,3.30
2018,10,22,07,39,3.20
2018,10,22,07,40,3.20
2018,10,22,07,41,3.20
2018,10,22,07,42,3.20
2018,10,22,07,43,3.10
2018,10,22,07,44,3.10
2018,10,22,07,45,3.10
2018,10,22,07,46,3.10
2018,10,22,07,47,3.10
2018,10,22,07,48,3.10
2018,10,22,07,49,3.10
2018,10,22,07,50,3.00
2018,10,22,07,51,3.00
2018,10,22,07,52,2.90
2018,10,22,07,53,2.90
2018,10,22,07,54,2.80
2018,10,22,07,55,2.80
2018,10,22,07,56,2.80
2018,10,22,07,57,2.80
2018,10,22,07,58,2.80
2018,10,22,07,59,2.80
2018,10,22,08,00,2.70
2018,10,22,08,01,2.70
2018,10,22,08,02,2.70
2018,10,22,08,03,2.70
2018,10,22,08,04,2.70
2018,10,22,08,05,2.70
2018,10,22,08,06,2.70
2018,10,22,08,07,2.70
2018,10,22,08,08,2.70
2018,10,22,08,09,2.70
2018,10,22,08,10,2.70
2018,10,22,08,11,2.70
2018,10,22,08,12,2.70
2018,10,22,08,13,2.70
2018,10,22,08,14,2.70
2018,10,22,08,15,2.70
2018,10,22,08,16,2.80
2018,10,22,08,17,2.80
2018,10,22,08,18,2.80
2018,10,22,08,19,2.80
2018,10,22,08,20,2.80
2018,10,22,08,21,2.80
2018,10,22,08,22,2.90
2018,10,22,08,23,2.90
2018,10,22,08,24,2.90
2018,10,22,08,25,3.00
2018,10,22,08,26,3.00
2018,10,22,08,27,3.00
2018,10,22,08,28,2.90
2018,10,22,08,29,2.90
2018,10,22,08,30,2.90
2018,10,22,08,31,2.90
2018,10,22,08,32,2.90
2018,10,22,08,33,2.90
2018,10,22,08,34,2.90
2018,10,22,08,35,2.90
2018,10,22,08,36,2.90
2018,10,22,08,37,2.90
2018,10,22,08,38,2.90
2018,10,22,08,39,2.90
2018,10,22,08,40,2.90
2018,10,22,08,41,2.90
2018,10,22,08,42,2.80
2018,10,22,08,43,2.80
2018,10,22,08,44,2.80
2018,10,22,08,45,2.80
2018,10,22,08,46,2.80
2018,10,22,08,47,2.80
2018,10,22,08,48,2.80
2018,10,22,08,49,2.80
2018,10,22,08,50,2.80
2018,10,22,08,51,2.80
2018,10,22,08,52,2.80
2018,10,22,08,53,2.80
2018,10,22,08,54,2.80
2018,10,22,08,55,2.70
2018,10,22,08,56,2.70
2018,10,22,08,57,2.70
2018,10,22,08,58,2.80
2018,10,22,08,59,2.80
2018,10,22,09,00,2.80
2018,10,22,09,01,2.80
2018,10,22,09,02,2.80
2018,10,22,09,03,2.80
2018,10,22,09,04,2.80
2018,10,22,09,05,2.80
2018,10,22,09,06,2.80
2018,10,22,09,07,2.80
2018,10,22,09,08,2.90
2018,10,22,09,09,2.90
2018,10,22,09,10,3.00
2018,10,22,09,11,3.10
2018,10,22,09,12,3.10
2018,10,22,09,13,3.10
2018,10,22,09,14,3.10
2018,10,22,09,15,3.20
2018,10,22,09,16,3.20
2018,10,22,09,17,3.20
2018,10,22,09,18,3.20
2018,10,22,09,19,3.20
2018,10,22,09,20,3.30
2018,10,22,09,21,3.40
2018,10,22,09,22,3.50
2018,10,22,09,23,3.50
2018,10,22,09,24,3.60
2018,10,22,09,25,3.60
2018,10,22,09,26,3.60
2018,10,22,09,27,3.70
2018,10,22,09,28,3.70
2018,10,22,09,29,3.70
2018,10,22,09,30,3.80
2018,10,22,09,31,3.80
2018,10,22,09,32,3.90
2018,10,22,09,33,3.90
2018,10,22,09,34,4.00
2018,10,22,09,35,4.10
2018,10,22,09,36,4.20
2018,10,22,09,37,4.30
2018,10,22,09,38,4.50
2018,10,22,09,39,4.60
2018,10,22,09,40,4.80
2018,10,22,09,41,4.90
2018,10,22,09,42,5.00
2018,10,22,09,43,5.10
2018,10,22,09,44,5.20
2018,10,22,09,45,5.20
2018,10,22,09,46,5.30
2018,10,22,09,47,5.30
2018,10,22,09,48,5.40
2018,10,22,09,49,5.40
2018,10,22,09,50,5.50
2018,10,22,09,51,5.50
2018,10,22,09,52,5.60
2018,10,22,09,53,5.60
2018,10,22,09,54,5.60
2018,10,22,09,55,5.60
2018,10,22,09,56,5.60
2018,10,22,09,57,5.60
2018,10,22,09,58,5.70
2018,10,22,09,59,5.70
2018,10,22,10,00,5.70
2018,10,22,10,01,5.70
2018,10,22,10,02,5.70
2018,10,22,10,03,5.70
2018,10,22,10,04,5.60
2018,10,22,10,05,5.60
2018,10,22,10,06,5.70
2018,10,22,10,07,5.70
2018,10,22,10,08,5.80
2018,10,22,10,09,5.90
2018,10,22,10,10,6.00
2018,10,22,10,11,6.20
2018,10,22,10,12,6.30
2018,10,22,10,13,6.40
2018,10,22,10,14,6.50
2018,10,22,10,15,6.60
2018,10,22,10,16,6.70
2018,10,22,10,17,6.80
2018,10,22,10,18,6.80
2018,10,22,10,19,6.90
2018,10,22,10,20,6.90
2018,10,22,10,21,7.00
2018,10,22,10,22,7.10
2018,10,22,10,23,7.10
2018,10,22,10,24,7.10
2018,10,22,10,25,7.20
2018,10,22,10,26,7.20
2018,10,22,10,27,7.30
2018,10,22,10,28,7.30
2018,10,22,10,29,7.40
2018,10,22,10,30,7.40
2018,10,22,10,31,7.50
2018,10,22,10,32,7.60
2018,10,22,10,33,7.60
2018,10,22,10,34,7.60
2018,10,22,10,35,7.70
2018,10,22,10,36,7.70
2018,10,22,10,37,7.70
2018,10,22,10,38,7.80
2018,10,22,10,39,7.80
2018,10,22,10,40,7.90
2018,10,22,10,41,7.90
2018,10,22,10,42,7.90
2018,10,22,10,43,8.00
2018,10,22,10,44,8.00
2018,10,22,10,45,8.10
2018,10,22,10,46,8.10
2018,10,22,10,47,8.20
2018,10,22,10,48,8.30
2018,10,22,10,49,8.30
2018,10,22,10,50,8.40
2018,10,22,10,51,8.40
2018,10,22,10,52,8.50
2018,10,22,10,53,8.50
2018,10,22,10,54,8.60
2018,10,22,10,55,8.60
2018,10,22,10,56,8.60
2018,10,22,10,57,8.70
2018,10,22,10,58,8.70
2018,10,22,10,59,8.80
2018,10,22,11,00,8.80
2018,10,22,11,01,8.80
2018,10,22,11,02,8.90
2018,10,22,11,03,8.90
2018,10,22,11,04,9.00
2018,10,22,11,05,9.00
2018,10,22,11,06,9.10
2018,10,22,11,07,9.10
2018,10,22,11,08,9.20
2018,10,22,11,09,9.30
2018,10,22,11,10,9.30
2018,10,22,11,11,9.40
2018,10,22,11,12,9.50
2018,10,22,11,13,9.50
2018,10,22,11,14,9.50
2018,10,22,11,15,9.50
2018,10,22,11,16,9.50
2018,10,22,11,17,9.60
2018,10,22,11,18,9.60
2018,10,22,11,19,9.60
2018,10,22,11,20,9.70
2018,10,22,11,21,9.80
2018,10,22,11,22,9.80
2018,10,22,11,23,9.80
2018,10,22,11,24,9.80
2018,10,22,11,25,9.70
2018,10,22,11,26,9.70
2018,10,22,11,27,9.60
2018,10,22,11,28,9.60
2018,10,22,11,29,9.50
2018,10,22,11,30,9.40
2018,10,22,11,31,9.40
2018,10,22,11,32,9.30
2018,10,22,11,33,9.30
2018,10,22,11,34,9.20
2018,10,22,11,35,9.20
2018,10,22,11,36,9.20
2018,10,22,11,37,9.20
2018,10,22,11,38,9.20
2018,10,22,11,39,9.10
2018,10,22,11,40,9.10
2018,10,22,11,41,9.00
2018,10,22,11,42,9.00
2018,10,22,11,43,9.00
2018,10,22,11,44,9.10
2018,10,22,11,45,9.10
2018,10,22,11,46,9.10
2018,10,22,11,47,9.10
2018,10,22,11,48,9.10
2018,10,22,11,49,9.20
2018,10,22,11,50,9.20
2018,10,22,11,51,9.20
2018,10,22,11,52,9.30
2018,10,22,11,53,9.30
2018,10,22,11,54,9.30
2018,10,22,11,55,9.30
2018,10,22,11,56,9.30
2018,10,22,11,57,9.30
2018,10,22,11,58,9.30
2018,10,22,11,59,9.30
2018,10,22,12,00,9.30
2018,10,22,12,01,9.30
2018,10,22,12,02,9.30
2018,10,22,12,03,9.30
2018,10,22,12,04,9.30
2018,10,22,12,05,9.40
2018,10,22,12,06,9.40
2018,10,22,12,07,9.40
2018,10,22,12,08,9.40
2018,10,22,12,09,9.50
2018,10,22,12,10,9.50
2018,10,22,12,11,9.50
2018,10,22,12,12,9.50
2018,10,22,12,13,9.50
2018,10,22,12,14,9.50
2018,10,22,12,15,9.50
2018,10,22,12,16,9.50
2018,10,22,12,17,9.50
2018,10,22,12,18,9.50
2018,10,22,12,19,9.60
2018,10,22,12,20,9.60
2018,10,22,12,21,9.60
2018,10,22,12,22,9.60
2018,10,22,12,23,9.70
2018,10,22,12,24,9.70
2018,10,22,12,25,9.70
2018,10,22,12,26,9.70
2018,10,22,12,27,9.80
2018,10,22,12,28,9.80
2018,10,22,12,29,9.90
2018,10,22,12,30,10.00
2018,10,22,12,31,10.00
2018,10,22,12,32,10.10
2018,10,22,12,33,10.10
2018,10,22,12,34,10.20
2018,10,22,12,35,10.20
2018,10,22,12,36,10.30
2018,10,22,12,37,10.30
2018,10,22,12,38,10.30
2018,10,22,12,39,10.40
2018,10,22,12,40,10.40
2018,10,22,12,41,10.40
2018,10,22,12,42,10.40
2018,10,22,12,43,10.50
2018,10,22,12,44,10.50
2018,10,22,12,45,10.50
2018,10,22,12,46,10.60
2018,10,22,12,47,10.60
2018,10,22,12,48,10.60
2018,10,22,12,49,10.60
2018,10,22,12,50,10.60
2018,10,22,12,51,10.60
2018,10,22,12,52,10.60
2018,10,22,12,53,10.60
2018,10,22,12,54,10.60
2018,10,22,12,55,10.60
2018,10,22,12,56,10.60
2018,10,22,12,57,10.60
2018,10,22,12,58,10.60
2018,10,22,12,59,10.70
2018,10,22,13,00,10.70
2018,10,22,13,01,10.70
2018,10,22,13,02,10.70
2018,10,22,13,03,10.70
2018,10,22,13,04,10.70
2018,10,22,13,05,10.70
2018,10,22,13,06,10.70
2018,10,22,13,07,10.80
2018,10,22,13,08,10.80
2018,10,22,13,09,10.80
2018,10,22,13,10,10.80
2018,10,22,13,11,10.70
2018,10,22,13,12,10.70
2018,10,22,13,13,10.70
2018,10,22,13,14,10.70
2018,10,22,13,15,10.80
2018,10,22,13,16,10.80
2018,10,22,13,17,10.90
2018,10,22,13,18,10.90
2018,10,22,13,19,11.00
2018,10,22,13,20,11.00
2018,10,22,13,21,11.10
2018,10,22,13,22,11.10
2018,10,22,13,23,11.20
2018,10,22,13,24,11.20
2018,10,22,13,25,11.20
2018,10,22,13,26,11.20
2018,10,22,13,27,11.20
2018,10,22,13,28,11.20
2018,10,22,13,29,11.20
2018,10,22,13,30,11.10
2018,10,22,13,31,11.10
2018,10,22,13,32,11.00
2018,10,22,13,33,11.00
2018,10,22,13,34,10.90
2018,10,22,13,35,10.90
2018,10,22,13,36,11.00
2018,10,22,13,37,11.00
2018,10,22,13,38,11.10
2018,10,22,13,39,11.10
2018,10,22,13,40,11.20
2018,10,22,13,41,11.20
2018,10,22,13,42,11.30
2018,10,22,13,43,11.30
2018,10,22,13,44,11.40
2018,10,22,13,45,11.50
2018,10,22,13,46,11.50
2018,10,22,13,47,11.50
2018,10,22,13,48,11.50
2018,10,22,13,49,11.50
2018,10,22,13,50,11.60
2018,10,22,13,51,11.60
2018,10,22,13,52,11.70
2018,10,22,13,53,11.70
2018,10,22,13,54,11.70
2018,10,22,13,55,11.70
2018,10,22,13,56,11.80
2018,10,22,13,57,11.80
2018,10,22,13,58,11.80
2018,10,22,13,59,11.80
2018,10,22,14,00,11.80
2018,10,22,14,01,11.80
2018,10,22,14,02,11.90
2018,10,22,14,03,12.00
2018,10,22,14,04,12.00
2018,10,22,14,05,12.10
2018,10,22,14,06,12.20
2018,10,22,14,07,12.30
2018,10,22,14,08,12.40
2018,10,22,14,09,12.50
2018,10,22,14,10,12.60
2018,10,22,14,11,12.60
2018,10,22,14,12,12.60
2018,10,22,14,13,12.60
2018,10,22,14,14,12.50
2018,10,22,14,15,12.40
2018,10,22,14,16,12.30
2018,10,22,14,17,12.20
2018,10,22,14,18,12.10
2018,10,22,14,19,12.10
2018,10,22,14,20,12.10
2018,10,22,14,21,12.20
2018,10,22,14,22,12.20
2018,10,22,14,23,12.30
2018,10,22,14,24,12.30
2018,10,22,14,25,12.40
2018,10,22,14,26,12.50
2018,10,22,14,27,12.50
2018,10,22,14,28,12.60
2018,10,22,14,29,12.70
2018,10,22,14,30,12.70
2018,10,22,14,31,12.70
2018,10,22,14,32,12.70
2018,10,22,14,33,12.80
2018,10,22,14,34,12.80
2018,10,22,14,35,12.80
2018,10,22,14,36,12.90
2018,10,22,14,37,13.00
2018,10,22,14,38,13.00
2018,10,22,14,39,13.10
2018,10,22,14,40,13.20
2018,10,22,14,41,13.20
2018,10,22,14,42,13.30
2018,10,22,14,43,13.30
2018,10,22,14,44,13.30
2018,10,22,14,45,13.40
2018,10,22,14,46,13.50
2018,10,22,14,47,13.50
2018,10,22,14,48,13.40
2018,10,22,14,49,13.40
2018,10,22,14,50,13.40
2018,10,22,14,51,13.30
2018,10,22,14,52,13.30
2018,10,22,14,53,13.30
2018,10,22,14,54,13.20
2018,10,22,14,55,13.20
2018,10,22,14,56,13.20
2018,10,22,14,57,13.20
2018,10,22,14,58,13.30
2018,10,22,14,59,13.30
2018,10,22,15,00,13.30
2018,10,22,15,01,13.40
2018,10,22,15,02,13.40
2018,10,22,15,03,13.50
2018,10,22,15,04,13.60
2018,10,22,15,05,13.70
2018,10,22,15,06,13.80
2018,10,22,15,07,13.90
2018,10,22,15,08,14.00
2018,10,22,15,09,14.10
2018,10,22,15,10,14.10
2018,10,22,15,11,14.10
2018,10,22,15,12,14.10
2018,10,22,15,13,14.00
2018,10,22,15,14,14.00
2018,10,22,15,15,13.90
2018,10,22,15,16,13.80
2018,10,22,15,17,13.80
2018,10,22,15,18,13.80
2018,10,22,15,19,13.80
2018,10,22,15,20,13.70
2018,10,22,15,21,13.70
2018,10,22,15,22,13.70
2018,10,22,15,23,13.70
2018,10,22,15,24,13.60
2018,10,22,15,25,13.50
2018,10,22,15,26,13.50
2018,10,22,15,27,13.40
2018,10,22,15,28,13.30
2018,10,22,15,29,13.30
2018,10,22,15,30,13.20
2018,10,22,15,31,13.20
2018,10,22,15,32,13.10
2018,10,22,15,33,13.00
2018,10,22,15,34,12.90
2018,10,22,15,35,12.80
2018,10,22,15,36,12.80
2018,10,22,15,37,12.70
2018,10,22,15,38,12.70
2018,10,22,15,39,12.60
2018,10,22,15,40,12.60
2018,10,22,15,41,12.60
2018,10,22,15,42,12.60
2018,10,22,15,43,12.60
2018,10,22,15,44,12.50
2018,10,22,15,45,12.50
2018,10,22,15,46,12.40
2018,10,22,15,47,12.40
2018,10,22,15,48,12.40
2018,10,22,15,49,12.50
2018,10,22,15,50,12.50
2018,10,22,15,51,12.50
2018,10,22,15,52,12.50
2018,10,22,15,53,12.50
2018,10,22,15,54,12.50
2018,10,22,15,55,12.40
2018,10,22,15,56,12.40
2018,10,22,15,57,12.50
2018,10,22,15,58,12.50
2018,10,22,15,59,12.60
2018,10,22,16,00,12.60
2018,10,22,16,01,12.70
2018,10,22,16,02,12.80
2018,10,22,16,03,12.80
2018,10,22,16,04,12.80
2018,10,22,16,05,12.90
2018,10,22,16,06,12.90
2018,10,22,16,07,12.90
2018,10,22,16,08,12.90
2018,10,22,16,09,12.90
2018,10,22,16,10,12.80
2018,10,22,16,11,12.70
2018,10,22,16,12,12.70
2018,10,22,16,13,12.60
2018,10,22,16,14,12.60
2018,10,22,16,15,12.60
2018,10,22,16,16,12.50
2018,10,22,16,17,12.50
2018,10,22,16,18,12.50
2018,10,22,16,19,12.40
2018,10,22,16,20,12.50
2018,10,22,16,21,12.50
2018,10,22,16,22,12.50
2018,10,22,16,23,12.50
2018,10,22,16,24,12.60
2018,10,22,16,25,12.70
2018,10,22,16,26,12.70
2018,10,22,16,27,12.70
2018,10,22,16,28,12.80
2018,10,22,16,29,12.80
2018,10,22,16,30,12.80
2018,10,22,16,31,12.80
2018,10,22,16,32,12.90
2018,10,22,16,33,12.90
2018,10,22,16,34,12.90
2018,10,22,16,35,12.80
2018,10,22,16,36,12.80
2018,10,22,16,37,12.70
2018,10,22,16,38,12.70
2018,10,22,16,39,12.70
2018,10,22,16,40,12.70
2018,10,22,16,41,12.70
2018,10,22,16,42,12.70
2018,10,22,16,43,12.70
2018,10,22,16,44,12.60
2018,10,22,16,45,12.60
2018,10,22,16,46,12.60
2018,10,22,16,47,12.50
2018,10,22,16,48,12.40
2018,10,22,16,49,12.40
2018,10,22,16,50,12.40
2018,10,22,16,51,12.30
2018,10,22,16,52,12.30
2018,10,22,16,53,12.20
2018,10,22,16,54,12.20
2018,10,22,16,55,12.10
2018,10,22,16,56,12.10
2018,10,22,16,57,12.00
2018,10,22,16,58,11.90
2018,10,22,16,59,11.80
2018,10,22,17,00,11.80
2018,10,22,17,01,11.80
2018,10,22,17,02,11.70
2018,10,22,17,03,11.60
2018,10,22,17,04,11.60
2018,10,22,17,05,11.50
2018,10,22,17,06,11.40
2018,10,22,17,07,11.40
2018,10,22,17,08,11.40
2018,10,22,17,09,11.30
2018,10,22,17,10,11.30
2018,10,22,17,11,11.30
2018,10,22,17,12,11.20
2018,10,22,17,13,11.20
2018,10,22,17,14,11.10
2018,10,22,17,15,11.10
2018,10,22,17,16,11.10
2018,10,22,17,17,11.10
2018,10,22,17,18,11.00
2018,10,22,17,19,11.00
2018,10,22,17,20,10.90
2018,10,22,17,21,10.90
2018,10,22,17,22,10.90
2018,10,22,17,23,10.80
2018,10,22,17,24,10.80
2018,10,22,17,25,10.80
2018,10,22,17,26,10.70
2018,10,22,17,27,10.70
2018,10,22,17,28,10.70
2018,10,22,17,29,10.70
2018,10,22,17,30,10.60
2018,10,22,17,31,10.60
2018,10,22,17,32,10.60
2018,10,22,17,33,10.60
2018,10,22,17,34,10.50
2018,10,22,17,35,10.50
2018,10,22,17,36,10.50
2018,10,22,17,37,10.40
2018,10,22,17,38,10.40
2018,10,22,17,39,10.40
2018,10,22,17,40,10.40
2018,10,22,17,41,10.30
2018,10,22,17,42,10.30
2018,10,22,17,43,10.30
2018,10,22,17,44,10.20
2018,10,22,17,45,10.20
2018,10,22,17,46,10.10
2018,10,22,17,47,10.00
2018,10,22,17,48,10.00
2018,10,22,17,49,9.90
2018,10,22,17,50,9.90
2018,10,22,17,51,9.90
2018,10,22,17,52,9.80